TimeEDT,TemperatureF,Dew PointF,Humidity,Sea Level PressureIn,VisibilityMPH,Wind Direction,Wind SpeedMPH,Gust SpeedMPH,PrecipitationIn,Events,Conditions,WindDirDegrees,DateUTC
12:53 AM,51.1,36.0,56,29.91,10.0,West,3.5,-,N/A,,Clear,280,2012-10-11 04:53:00
1:53 AM,48.9,37.0,64,29.93,10.0,Calm,Calm,-,N/A,,Clear,0,2012-10-11 05:53:00
2:53 AM,46.0,37.9,73,29.94,10.0,Calm,Calm,-,N/A,,Clear,0,2012-10-11 06:53:00
3:53 AM,46.9,37.0,68,29.96,10.0,WSW,4.6,-,N/A,,Clear,250,2012-10-11 07:53:00
4:53 AM,45.0,36.0,71,29.99,10.0,Calm,Calm,-,N/A,,Clear,0,2012-10-11 08:53:00
5:53 AM,44.1,37.0,76,30.04,10.0,South,5.8,-,N/A,,Clear,190,2012-10-11 09:53:00
6:53 AM,44.1,37.0,76,30.07,10.0,Variable,3.5,-,N/A,,Clear,0,2012-10-11 10:53:00
7:53 AM,46.0,37.0,71,30.09,10.0,West,4.6,-,N/A,,Clear,270,2012-10-11 11:53:00
8:53 AM,48.9,35.1,59,30.13,10.0,WNW,9.2,-,N/A,,Clear,300,2012-10-11 12:53:00
9:53 AM,51.1,34.0,52,30.14,10.0,West,15.0,20.7,N/A,,Clear,280,2012-10-11 13:53:00
10:53 AM,53.1,33.1,47,30.15,10.0,NW,12.7,20.7,N/A,,Clear,310,2012-10-11 14:53:00
11:53 AM,55.9,32.0,40,30.15,10.0,WNW,10.4,21.9,N/A,,Clear,300,2012-10-11 15:53:00
12:53 PM,57.9,33.1,39,30.13,10.0,NW,10.4,19.6,N/A,,Partly Cloudy,310,2012-10-11 16:53:00
1:53 PM,57.9,33.1,39,30.13,10.0,WNW,10.4,-,N/A,,Clear,290,2012-10-11 17:53:00
2:53 PM,59.0,32.0,36,30.12,10.0,North,6.9,-,N/A,,Clear,350,2012-10-11 18:53:00
3:53 PM,60.1,32.0,35,30.12,10.0,NW,5.8,-,N/A,,Clear,310,2012-10-11 19:53:00
4:53 PM,59.0,30.9,35,30.11,10.0,Variable,4.6,-,N/A,,Clear,0,2012-10-11 20:53:00
5:53 PM,57.9,28.9,33,30.12,10.0,SW,3.5,-,N/A,,Clear,220,2012-10-11 21:53:00
6:53 PM,53.1,35.1,50,30.12,10.0,South,4.6,-,N/A,,Clear,180,2012-10-11 22:53:00
7:53 PM,50.0,37.0,61,30.13,10.0,SSE,3.5,-,N/A,,Clear,160,2012-10-11 23:53:00
9:53 PM,48.0,36.0,63,30.14,10.0,South,4.6,-,N/A,,Clear,190,2012-10-12 01:53:00
10:53 PM,46.9,37.0,68,30.15,10.0,South,5.8,-,N/A,,Clear,190,2012-10-12 02:53:00
11:53 PM,46.0,37.0,71,30.13,10.0,South,3.5,-,N/A,,Clear,180,2012-10-12 03:53:00